Regional Weather Roundup
Issued by NWS

Home | Current Version | Previous Version | Text Only | Print | Product List | Glossary Off
Versions: 1 2 3 4 5 6 7 8 9 10 11 12 13 14 15 16 17 18 19 20 21 22 23 24 25 26 27 28 29 30 31 32 33 34 35 36 37 38 39 40 41 42 43 44 45 46 47 48 49 50

000
ASUS43 KMKX 232220
RWRWI

WISCONSIN REGIONAL WEATHER ROUNDUP
NATIONAL WEATHER SERVICE MILWAUKEE/SULLIVAN WI
400 PM CST FRI FEB 23 2018

NOTE: "FAIR" INDICATES FEW OR NO CLOUDS BELOW 12,000 FEET WITH NO
SIGNIFICANT WEATHER AND/OR OBSTRUCTIONS TO VISIBILITY.

WIZ001-002-006>008-014>016-023>028-232300-
NORTHWEST WISCONSIN

CITY           SKY/WX    TMP DP  RH WIND       PRES   REMARKS
SUPERIOR ARPT  CLOUDY    34  23  65 W7        30.12R WCI  28
ASHLAND        CLOUDY    31  23  72 W13       30.11S WCI  21
HAYWARD        CLOUDY    31  23  72 W3        30.12R
SIREN          FAIR      33  21  61 W10       30.15R WCI  25
CUMBERLAND     FAIR      30  19  64 W8        30.13S WCI  23
RICE LAKE      PTSUNNY   31  22  69 W8        30.16S WCI  23
CHETEK         PTSUNNY   31  22  69 W3        30.16R
LADYSMITH      CLOUDY    31  22  71 W13       30.14R WCI  21
EAU CLAIRE     CLOUDY    29  22  75 W8        30.18R WCI  21
MENOMONIE      FAIR      32  22  66 W9        30.19R WCI  24
NEW RICHMOND   FAIR      32  20  62 W8        30.18R WCI  25
OSCEOLA        FAIR      33  22  63 W7        30.20R WCI  27
$$

WIZ003>005-009-010-017-018-232300-
NORTH CENTRAL WISCONSIN

CITY           SKY/WX    TMP DP  RH WIND       PRES   REMARKS
MANITOWISH WTR CLOUDY    28  25  87 W7        30.05R WCI  21
ARBOR VITAE    CLOUDY    32  27  83 W9        30.06R WCI  24
WOODRUFF       CLOUDY    32  27  83 W9        30.06R WCI  24
RHINELANDER    CLOUDY    29  25  85 W13       30.06R WCI  19
EAGLE RIVER    PTSUNNY   28  23  79 W14       30.05R WCI  17
LAND O LAKES   CLOUDY    29  24  81 W6G17     30.05R WCI  23
PHILLIPS       CLOUDY    28  23  80 W9        30.09R WCI  20
TOMAHAWK       CLOUDY    29  24  82 W8        30.09R WCI  21
MEDFORD        CLOUDY    28  22  80 W9G18     30.12R WCI  19
MERRILL        CLOUDY    30  24  79 W12       30.12R WCI  21
$$

WIZ029-030-035-036-043>047-232300-
CENTRAL WISCONSIN

CITY           SKY/WX    TMP DP  RH WIND       PRES   REMARKS
WAUSAU         CLOUDY    30  23  75 W14       30.11R WCI  19
MOSINEE        CLOUDY    30  27  86 W15G22    30.14R WCI  19
MARSHFIELD     CLOUDY    29  23  78 W16       30.14R WCI  17
STEVENS POINT  CLOUDY    29  24  81 W8        30.15R WCI  21
WAUPACA        CLOUDY    35  27  72 W14G21    30.15R WCI  26
WAUTOMA        CLOUDY    33  27  78 W14       30.16R WCI  23
WISC RAPIDS    CLOUDY    31  23  72 W12       30.17R WCI  22
CAMP DOUGLAS   PTSUNNY   33  25  73 W10       30.18R WCI  24
$$

WIZ011>013-019>022-031-037>040-048>050-232300-
NORTHEAST WISCONSIN

CITY           SKY/WX    TMP DP  RH WIND       PRES   REMARKS
ANTIGO         CLOUDY    29  25  84 W14       30.08R WCI  18
SHAWANO        CLOUDY    35  28  74 W13G18    30.12R WCI  26
OCONTO         CLOUDY    35  29  76 W14G25    30.09R WCI  26
STURGEON BAY   CLOUDY    36  30  79 W12       30.09R WCI  28
GREEN BAY      CLOUDY    36  28  73 W16G25    30.12R WCI  26
MANITOWOC      CLOUDY    36  30  79 W17G24    30.13R WCI  26
APPLETON       CLOUDY    34  27  75 W15       30.12R WCI  24
CLINTONVILLE   CLOUDY    33  27  76 W8        30.13R WCI  26
OSHKOSH        CLOUDY    35  28  75 W13       30.13R WCI  26
$$

WIZ032>034-041-042-053>061-232300-
SOUTHWEST WISCONSIN

CITY           SKY/WX    TMP DP  RH WIND       PRES   REMARKS
LA CROSSE      PTSUNNY   32  25  75 NW12      30.23R WCI  23
SPARTA         FAIR      32  24  73 W8        30.22R WCI  25
VIROQUA        FAIR      32  27  81 W9        30.19R WCI  24
BOSCOBEL       FAIR      36  25  64 W8        30.22R WCI  30
PRAIRIE DU CHI FAIR      34  24  66 W13       30.24R WCI  25
PLATTEVILLE    FAIR      35  30  84 W14       30.22R WCI  25
$$

WIZ056-057-062-063-064-067-068-232300-
SOUTH CENTRAL WISCONSIN

CITY           SKY/WX    TMP DP  RH WIND       PRES   REMARKS
REEDSBURG      FAIR      34  26  70 W9G16     30.18R WCI  27
BARABOO/DELLS  FAIR      35  26  69 W12       30.17R WCI  27
LONE ROCK      FAIR      37  28  70 W10       30.20R WCI  30
MINERAL POINT  FAIR      36  32  87 W15       30.19R WCI  26
MADISON        PTSUNNY   38  29  70 W7        30.18R WCI  33
MIDDLETON      PTSUNNY   39  31  72 W8        30.18R WCI  34
WATERTOWN      CLOUDY    37  32  83 W9        30.16R WCI  30
MONROE         CLOUDY    34  30  86 W14       30.19R WCI  24
JANESVILLE     CLOUDY    39  32  75 W12       30.19R WCI  32
$$

WIZ051-052-058>065-066-070>072-232300-
SOUTHEAST WISCONSIN

CITY           SKY/WX    TMP DP  RH WIND       PRES   REMARKS
MILWAUKEE      CLOUDY    39  32  76 W13G21    30.18R WCI  31
WAUKESHA       CLOUDY    36  30  80 W12G18    30.18R WCI  27
MILWAUKEE/TIMM CLOUDY    37  30  75 W10       30.18R WCI  30
RACINE         CLOUDY    39  33  79 W10       30.20R WCI  32
BURLINGTON     CLOUDY    37  31  77 W7G20     30.19R WCI  32
KENOSHA        CLOUDY    39  32  76 W13       30.19R WCI  31
FOND DU LAC    CLOUDY    36  28  73 W13       30.15R WCI  27
SHEBOYGAN      CLOUDY    37  32  82 W10G21    30.14R WCI  30
WEST BEND      CLOUDY    36  32  87 W13       30.15R WCI  27
JUNEAU         CLOUDY    35  29  79 W7        30.17R WCI  29
$$

LSZ147-162-232300-
LAKE SUPERIOR

STATION/POSITION TIME  TEMP    WIND        PRES    WAVE
                       AIR SEA DIR/SP/G            HT/PER
                 (UTC) (F)     (DEG/KT/KT) (MB)    (FT/S)
DEVILS ISLAND    2200   30     240/ 20/ 23 1019.8R
SAXON HARBOR     2130   32     250/  4/ 14 1019.0R
$$

LMZ867-665-643>646-232300-
LAKE MICHIGAN

STATION/POSITION TIME  TEMP    WIND        PRES    WAVE
                       AIR SEA DIR/SP/G            HT/PER
                 (UTC) (F)     (DEG/KT/KT) (MB)    (FT/S)
NORTHPORT PIER   2140   38                 1017.3R
KEWAUNEE LAKESHO 2154   37     250/ 10/ 14 1018.7R
SHEBOYGAN LAKESH 2200          270/ 13     1021.2R
PORT WASHINGTON  2130   39     260/ 10/ 15 1022.0R
KENOSHA   LAKESH 2200   39     260/ 11/ 15 1022.7
$$

TC  - TEMPERATURE IN CELSIUS
VSB - VISIBILITY IN STATUTE MILES
WCI - WIND CHILL INDEX
HX  - HEAT INDEX




USA.gov is the U.S. government's official web portal to all federal, state and local government web resources and services.